Flag for India Weather past 2 weeks in Sivaganga, Tamil Nadu, India

Now
99 °F

Scattered clouds.


Feels Like: 106 °F
Forecast: 81 / 96 °F
Wind: 23 mph from West

Location: Tiruchchirapalli

Current Time: Jul 24, 2014 at 2:31:04 PM

Latest Report: Jul 24, 2014 at 1:40 PM


Visibility: 5 mi

Pressure: 29.68 "Hg

Humidity: 39%

Dew point: 70 °F

Location of SivagangaLocation

Historic Weather in Sivaganga — Graph

°F

Sivaganga temperature yesterday

Maximum temperature yesterday: 91 °F (at 5:40 PM)
Minimum temperature yesterday: 82 °F (at 4:40 AM)
Average temperature yesterday: 85 °F

Past Weeks' High & Low Weather Summary

 TemperatureHumidityPressure
High100 °F (Jul 15, 3:40 PM)74% (Jul 11, 2:40 AM)29.80 "Hg (Jul 11, 2:40 AM)
Low81 °F (Jul 11, 2:40 AM)33% (Jul 17, 1:40 PM)29.62 "Hg (Jul 13, 4:40 PM)
Average88 °F54%29.72 "Hg
* Reported Jul 9 6:40 PM — Jul 24 12:40 PM, Sivaganga, Weather by CustomWeather, © 2014

Note: Actual official high and low records may vary slightly from our data, if they occured in-between our weather recording intervals... More about our weather records

Advertising

Sivaganga weather history for previous 24 hours

 ConditionsComfort  
Time TempWeatherWind HumidityBarometerVisibility
12:40 PM
Jul 24
99 °FScattered clouds.21 mph39%29.71 "Hg5 mi
11:40 AM97 °FScattered clouds.22 mph42%29.74 "Hg5 mi
10:40 AM93 °FPassing clouds.23 mph47%29.77 "Hg4 mi
9:40 AM90 °FScattered clouds.16 mph52%29.77 "Hg4 mi
8:40 AM88 °FScattered clouds.14 mph55%29.80 "Hg4 mi
7:40 AM84 °FScattered clouds.22 mph62%29.77 "Hg4 mi
6:40 AM84 °FScattered clouds.14 mph62%29.77 "Hg4 mi
5:40 AM82 °FPassing clouds.9 mph66%29.74 "Hg4 mi
4:40 AM82 °FPassing clouds.13 mph66%29.74 "Hg4 mi
3:40 AM82 °FPassing clouds.17 mph66%29.74 "Hg4 mi
2:40 AM82 °FPassing clouds.9 mph66%29.74 "Hg4 mi
1:40 AM82 °FPassing clouds.17 mph66%29.77 "Hg4 mi
12:40 AM82 °FPassing clouds.20 mph66%29.80 "Hg4 mi
11:40 PM
Jul 23
84 °FPassing clouds.23 mph62%29.80 "Hg4 mi
10:40 PM84 °FPassing clouds.26 mph58%29.80 "Hg4 mi
9:40 PM84 °FPassing clouds.17 mph58%29.80 "Hg4 mi
8:40 PM86 °FPassing clouds.21 mph59%29.77 "Hg4 mi
7:40 PM86 °FPassing clouds.21 mph55%29.74 "Hg4 mi
6:40 PM88 °FPartly sunny.17 mph52%29.71 "Hg4 mi
5:40 PM91 °FBroken clouds.21 mph46%29.71 "Hg4 mi
Weather by CustomWeather, © 2014

See weather overviewHow to use our weather pages